Back to catalog

COSMOS 1275 DEB

AlivePO
NORAD 14556·DEBRIS·🇷🇺 Russia

Launched Jun 4, 1981 from Plesetsk Cosmodrome

Loading…

Next Passes (next 24 hours)

TLE

FreshSource: Space-Track

Epoch: Sep 14, 2026, 08:05 UTC

1 14556U 81053JL  26257.33730647  .00000704  00000-0  72557-3 0  9993
2 14556  83.0109 272.7372 0127550  68.1394 350.8782 13.71128195124328

Track COSMOS 1275 DEB in real time with AllMySat

Download on the App Store